Location: McFarlands Corners
(41.4117°N, 81.3382°W)
Time: 15:30:17
(UTC+00:00)

Transit 2A Rocket - Visible Passes

Search period start: 10 February 2026 00:00
Search period end: 20 February 2026 00:00
Orbit: 581 x 901 km, 66.7° (Epoch: 10 February)

Date Brightness Start Highest point End Pass type
(mag) Time Alt. Az. Time Alt. Az. Time Alt. Az.
10 Feb 7.8 01:30:43 10° WNW 01:34:03 15° NW 01:37:22 10° N visible
11 Feb 7.4 00:43:15 10° W 00:47:52 22° NW 00:52:28 10° N visible
11 Feb 6.9 23:56:26 10° WSW 00:01:50 34° NW 00:07:16 10° NNE visible
13 Feb 7.8 00:56:58 10° WNW 00:59:45 13° NW 01:02:31 10° N visible
14 Feb 7.6 00:09:13 10° W 00:13:30 20° NW 00:17:47 10° N visible
14 Feb 7.1 23:22:13 10° WSW 23:27:26 30° NW 23:32:39 10° NNE visible
16 Feb 7.8 00:23:21 10° NW 00:25:26 12° NNW 00:27:32 10° NNW visible
16 Feb 7.6 23:35:14 10° W 23:39:09 17° NW 23:43:03 10° N visible
18 Feb 7.9 23:50:09 10° NW 23:51:08 10° NNW 23:52:09 10° NNW visible
